Current weather by "City, St" or "zip code"  
 

Current Conditions: MUSKOGEE

Clear


89.1 F

Last Updated on Sep 28 2022, 03:53 PM CDT
Humidity: 21%
Wind Speed: SE 8.1 G 18.3 mph
Barometer 30.19 in
Dewpoint: 44.1 F
Visibility: 10.00 mi
Precip: --
Heat Index: 85.6 F
Wind Chill: NA
Current conditions at:

MUSKOGEE (KMKO)

Lat: 35.65 Lon: 95.37

Local Radar Image active severe weather and emergency alerts image image weather storm and storm spotter reports image weather observation monitoring service image
Local
Radar
Active
Alerts
Storm Reports Obs
Monitoring

Sign-up For Email & Text Message Weather Alert Notification Services



Advertise Here

Observation History for MUSKOGEE


Time Wind
(mph)
Vis
(mi)
Weather Precip (in) Temperature (F) Relative
Humidity
Wind
Chill
(F)
Heat
Index
(F)
Pressure
Air Dwpt altimeter
(in)
sea level
(mb)
Rmks
03:53 PM CDT SE 8.1 G 18.3 10.00 Clear -- 89.1 44.1 21% NA 85.6 30.19 1022.4
02:53 PM CDT 10.3 10.00 Clear -- 88.0 45.0 22% NA 84.7 30.22 1023.4
01:53 PM CDT 9.2 10.00 Clear -- 87.1 44.1 22% NA 83.8 30.25 1024.1
12:53 PM CDT 11.4 10.00 Clear -- 84.9 45.0 25% NA 82.2 30.27 1025.1
11:53 AM CDT 6.9 10.00 Clear -- 81.0 45.0 28% NA 79.7 30.28 1025.4
10:53 AM CDT SE 8.1 10.00 Clear -- 79.0 44.1 29% NA 77.9 30.29 1025.7
09:53 AM CDT SE 10.3 10.00 Clear -- 73.9 44.1 34% NA 72.7 30.28 1025.4
08:53 AM CDT SE 6.9 10.00 Clear -- 68.0 45.0 43% NA NA 30.27 1025.1
07:53 AM CDT S 4.7 10.00 Clear -- 60.1 46.0 60% NA NA 30.26 1024.7
06:53 AM CDT S 6.9 10.00 Mostly Cloudy -- 57.9 46.0 65% NA NA 30.25 1024.4
05:53 AM CDT 0.0 10.00 Clear -- 60.1 45.0 57% NA NA 30.23 1023.7
04:53 AM CDT S 3.4 10.00 Mostly Clear -- 60.1 45.0 57% NA NA 30.22 1023.4
02:53 AM CDT 3.4 10.00 Clear -- 63.0 45.0 52% NA NA 30.20 1022.7
01:53 AM CDT 5.8 10.00 Clear -- 64.9 45.0 48% NA NA 30.19 1022.4
12:53 AM CDT 5.8 10.00 Clear -- 66.9 46.9 49% NA NA 30.18 1022.0
11:53 PM CDT S 4.7 10.00 Clear -- 66.0 46.9 50% NA NA 30.17 1021.7
10:53 PM CDT 8.1 10.00 Clear -- 70.0 45.0 41% NA NA 30.15 1021.0
09:53 PM CDT 4.7 10.00 Clear -- 71.1 43.0 36% NA 69.6 30.14 1020.7
08:53 PM CDT S 5.8 10.00 Clear -- 72.0 43.0 35% NA 70.5 30.12 1020.0
07:53 PM CDT SE 4.7 10.00 Clear -- 75.0 44.1 33% NA 73.8 30.12 1019.7
06:53 PM CDT 8.1 10.00 Clear -- 81.0 42.1 25% NA 79.9 30.10 1019.3
05:53 PM CDT SW 6.9 10.00 Clear -- 88.0 39.0 18% NA 84.4 30.09 1019.0
04:53 PM CDT 9.2 10.00 Clear -- 89.1 39.0 17% NA 85.3 30.09 1019.0
03:53 PM CDT S 8.1 10.00 Clear -- 89.1 39.0 17% NA 85.3 30.12 1019.7

Regional Weather Observation


OKMULGEE (KOKM)

Clear
NULL F

TAHLEQUAH (KTQH)

Clear
NULL F

TULSA (KRVS)

Clear
89.1 F

TULSA (KTUL)

Clear
89.1 F

PRYOR (KH71)

NULL
NULL F

CLAREMORE (KGCM)

Clear
NULL F

Advertise Here


Advertise Here